Location: Grand Lay
(47.3253°N, 0.9468°E)
Time: 23:10:12
(UTC+00:00)

GRACE-FO 1 - Pass Details

Date: 18 January 2026
Orbit: 447 x 461 km, 89.0° (Epoch: 16 February)

Event Time Altitude Azimuth Distance (km) Brightness Sun altitude
Rises 06:50:49 0° 186° (S) 2,450 8.4 -7.8°
Reaches altitude 10° 06:52:52 10° 189° (S) 1,585 7.3 -7.5°
Maximum altitude 06:56:15 62° 271° (W) 520 4.4 -7.0°
Drops below altitude 10° 06:59:43 10° 353° (N) 1,609 6.9 -6.4°
Sets 07:01:49 0° 357° (N) 2,492 7.9 -6.1°
